STARLINK-3148 (49736 NORAD) Tracking and Keplerian Element Data

This shows tracking and keplerian element data for the satellite.

Feedback or suggestion? Click here.




ElementValue
Catalog49736
NameSTARLINK-3148
Epoch Orbit2699
Epoch Day140.91667824
Epoch Year2022
RAAN263.5604
Inclination53.2174
Eccentricity0.0002637
Argument of Perigee22.7786
Mean Anonmoly145.3081
Mean Motion15.08836117
Decay Rate-5.828E-05
L11 49736U 21115N 22140.91667824 -.00005828 00000+0 -34833-3 0 9999
L22 49736 53.2174 263.5604 0002637 22.7786 145.3081 15.08836117 26997

Live tracking and technical data element details for STARLINK-3148 (NORAD 49736). STARLINK-3148 can be tracked NOW for your location showing map with azimuth and elevation plus other details from your city location.

Track the satellite on the map from your city or location and see movement details for azimuth, elevation, latitude, longitude, range, height, and movement on the map or in text.







IsCatalogInMostPopularTable: catalog: 49736, numindb: 20
Update: records affected: 1



GetName: 49736 STARLINK-3148

Hit Count: updated at: Sun, 22 May 2022 03:49:47 GMT